User: anonymous   Login
Location: Hartman Creek State Park
(44.3257°N, 89.2134°W)
Time: 00:49:15
(UTC-05:00)
Language:

Cosmos 2263 Rocket - Orbit

View from above orbital plane
View from above orbital plane
View from above satellite
View from above satellite

Ground track
Ground track

The orbit data is extracted from the following two-line orbital elements,

1 22803U 93059B   16151.83040402  .00000246  00000-0  14656-3 0  9993
2 22803  70.9903 335.1329 0019303 249.9382 109.9664 14.16744128174122
Epoch (UTC): 30 May 2016 19:55:46
Eccentricity: 0.0019303
inclination: 70.9903°
perigee height: 822 km
apogee height: 850 km
right ascension of ascending node: 335.1329°
argument of perigee: 249.9382°
revolutions per day: 14.16744128
mean anomaly at epoch: 109.9664°
orbit number at epoch: 17412

The dashed part of the orbit path shows where the satellite is in the earth's shadow,  

DLR